Location: Grantham
(50.0698°N, 112.0083°W)
Time: 02:46:52
(UTC+00:00)

ISS - Pass Details

Date: 05 December 2021
Orbit: 413 x 422 km, 51.6° (Epoch: 24 January)

Event Time Altitude Azimuth Distance (km) Brightness Sun altitude
Rises 23:46:38 0° 284° (WNW) 2,388 0.8 -3.5°
Reaches altitude 10° 23:48:44 10° 285° (WNW) 1,519 -0.2 -3.8°
Maximum altitude 23:52:10 85° 14° (NNE) 432 -3.7 -4.2°
Drops below altitude 10° 23:55:34 10° 104° (ESE) 1,510 -1.4 -4.7°
Enters shadow 23:58:00 -1° 105° (ESE) 2,516 -0.2 -5.1°
